Location: Bucquoy
(50.1391°N, 2.7097°E)
Time: 09:11:38
(UTC+00:00)

Cosmos 2233 Rocket - Pass Details

Date: 06 May 2021
Orbit: 952 x 991 km, 82.9° (Epoch: 21 June)

Event Time Altitude Azimuth Distance (km) Brightness Sun altitude
Rises 03:27:22 0° 347° (NNW) 3,693 7.4 -7.5°
Reaches altitude 10° 03:29:56 10° 344° (NNW) 2,736 6.6 -7.1°
Maximum altitude 03:36:04 59° 267° (W) 1,111 4.1 -6.3°
Drops below altitude 10° 03:42:05 10° 190° (S) 2,691 5.9 -5.5°
Sets 03:44:36 0° 186° (S) 3,628 6.6 -5.2°
